Погода в Бельском Устье

Россия / Псковская область     57°40′21″N   29°42′06″E
темп.,
°C
ветер,
м/с
пор.,
м/с
влажн.,
%
обл.,
%
осадки,
мм/ч
давл.,
гПа
погр.,
м
20 января, ср
ср2000:00−13юз24920 0.0 101786
03:00−14юз22920 0.0 101841
06:00−13ююз22941 0.0 101729
09:00−14ю22941 0.0 101842
12:00−10ю36890 0.0 1018247
15:00−9ююв37883 0.0 1016352
18:00−12ююв4109255 0.0 1016279
21:00−12ююв4118978 0.0 1014353
21 января, чт
чт2100:00−12ююв41092100 0.2 1012386
03:00−10ююв4993100 0.7 1010443
06:00−9ююв4893100 0.8 1008470
09:00−8ююв3894100 1.6 1007377
12:00−6ююв3693100 0.3 1006295
15:00−4ююв3694100 0.3 1006281
18:00−2ююв3796100 0.3 1005273
21:00+1ю3896100 1.4 1004366
22 января, пт
пт2200:00+1ю3995100 0.9 1004424
03:00−1ю399599 0.9 1004285
06:00−1ю3895100 0.0 1004223
09:00−2ю3995100 0.0 1003301
12:00+1ююз4894100 0.0 1003513
15:00+1ю4994100 0.0 1002551
18:00+1ю3893100 0.0 1001383
21:00+1ю2895100 0.0 1001322
23 января, сб
сб2300:00+1ю3995100 0.0 1001430
03:00+1ю3995100 0.0 1001413
06:00+1ю2297100 0.0 100078
09:00+1ю2699100 0.8 1000185
12:00+1ю2599100 0.1 1001193
15:00+2ююз3710099 0.1 1002341
18:00+1ю2798100 0.0 1002225
21:00+1ююв389697 0.0 1003245
24 января, вс
вс2400:00+2юв399898 0.0 1002307
03:00+3ююв4129799 0.1 1000500
06:00+3ююв61496100 0.3 999509
09:00+2ююв51394100 0.7 999465
12:00+2ююв51196100 0.0 1000513
15:00+2ююв3997100 0.1 999364
18:00+2юв3998100 0.9 997337
21:00+2юв3998100 1.4 996324